GW6166 Weather Reports


time (UTC)temp
C
wind
direction
speed
KPH
gust
KPH
rain 1hr
cm
rain 24hr
cm
rain mn
cm
humidity
%
barometer
mb
20260506223014 15 161 1.6 6.4 0.18 0.48 0.48 94 1005.9
20260506221505 15 159 1.6 9.7 0.15 0.46 0.46 94 1005.9
20260506220008 15 243 1.6 9.7 0.15 0.46 0.46 94 1005.9
20260506214513 15 141 0.0 6.4 0.05 0.36 0.36 93 1006.0
20260506213016 14 125 1.6 9.7 0.03 0.30 0.30 93 1006.1
20260506211528 15 127 1.6 12.9 0.05 0.30 0.30 93 1006.1
20260506210006 15 229 1.6 11.3 0.08 0.30 0.30 93 1006.2
20260506204515 15 113 4.8 9.7 0.10 0.30 0.30 92 1006.2
20260506203014 15 139 3.2 8.0 0.08 0.28 0.28 92 1006.3
20260506201518 15 105 0.0 11.3 0.08 0.25 0.25 92 1006.5
20260506200019 15 146 1.6 16.1 0.08 0.23 0.23 92 1006.6
20260506194506 15 220 4.8 16.1 0.08 0.20 0.20 92 1007.1
20260506191513 15 226 1.6 8.0 0.08 0.18 0.18 91 1007.1
20260506190020 15 236 4.8 12.9 0.05 0.15 0.15 89 1007.4
20260506184525 15 18 6.4 14.5 0.05 0.13 0.13 89 1007.3
20260506183005 16 167 3.2 8.0 0.10 0.13 0.13 88 1007.4
20260506181528 16 152 4.8 12.9 0.10 0.10 0.10 87 1007.4
20260506180016 16 159 3.2 8.0 0.10 0.10 0.10 86 1007.1
20260506174524 17 154 1.6 6.4 0.08 0.08 0.08 85 1007.6
20260506173042 17 240 1.6 12.9 0.03 0.03 0.03 80 1007.8
20260506171514 18 235 1.6 17.7 0.00 0.00 0.00 76 1008.3
20260506170038 18 122 1.6 16.1 0.00 0.00 0.00 73 1008.2
20260506164517 19 143 6.4 14.5 0.00 0.00 0.00 70 1007.9
20260506163028 19 76 3.2 9.7 0.00 0.00 0.00 69 1008.0
20260506161524 19 164 3.2 14.5 0.00 0.00 0.00 70 1008.3
20260506160010 18 121 1.6 4.8 0.00 0.00 0.00 72 1008.5
20260506154513 18 231 3.2 9.7 0.00 0.00 0.00 73 1009.0
20260506153023 18 268 3.2 16.1 0.00 0.00 0.00 74 1009.2
20260506151521 18 183 3.2 12.9 0.00 0.00 0.00 74 1009.3
20260506150026 17 146 4.8 14.5 0.00 0.00 0.00 74 1009.4
20260506144509 17 195 1.6 19.3 0.00 0.00 0.00 76 1009.4
20260506143023 17 125 1.6 19.3 0.00 0.00 0.00 76 1009.6
20260506141519 17 155 4.8 12.9 0.00 0.00 0.00 75 1009.4
20260506140023 17 253 3.2 17.7 0.00 0.00 0.00 76 1009.5
20260506134525 17 198 3.2 11.3 0.00 0.00 0.00 76 1009.2
20260506133025 17 95 3.2 11.3 0.00 0.00 0.00 77 1009.4
20260506131516 16 183 3.2 9.7 0.00 0.00 0.00 78 1009.4
20260506130004 16 122 3.2 8.0 0.00 0.00 0.00 78 1009.5
20260506124505 16 113 3.2 6.4 0.00 0.00 0.00 79 1009.6
20260506123010 16 308 1.6 8.0 0.00 0.00 0.00 80 1009.7
20260506121515 15 212 3.2 12.9 0.00 0.00 0.00 81 1009.7
20260506120018 15 223 0.0 12.9 0.00 0.00 0.00 81 1010.0
20260506114503 15 122 3.2 6.4 0.00 0.00 0.00 81 1009.9
20260506113028 15 202 1.6 12.9 0.00 0.00 0.00 82 1009.9
20260506111511 15 181 1.6 11.3 0.00 0.00 0.00 82 1009.7
20260506110018 14 205 4.8 9.7 0.00 0.00 0.00 83 1010.2
20260506104540 14 236 3.2 8.0 0.00 0.00 0.00 83 1010.2
20260506103007 14 244 1.6 6.4 0.00 0.00 0.00 83 1010.2
20260506101510 14 120 1.6 8.0 0.00 0.00 0.00 84 1009.8
20260506100014 13 214 0.0 6.4 0.00 0.00 0.00 84 1009.9
20260506094518 13 110 1.6 8.0 0.00 0.00 0.00 84 1009.8
20260506093020 13 138 1.6 6.4 0.00 0.00 0.00 83 1009.9
20260506091506 14 115 1.6 11.3 0.00 0.00 0.00 82 1009.8
20260506090035 14 210 0.0 6.4 0.00 0.00 0.00 82 1009.9
20260506084514 14 109 1.6 4.8 0.00 0.00 0.00 81 1009.9
20260506083034 14 110 1.6 6.4 0.00 0.00 0.00 81 1010.0
20260506081524 15 72 1.6 6.4 0.00 0.00 0.00 80 1009.9
20260506073018 15 127 0.0 1.6 0.00 0.00 0.00 79 1009.9
20260506071522 15 84 1.6 3.2 0.00 0.00 0.00 78 1010.0
20260506061516 16 116 0.0 6.4 0.00 0.00 0.00 72 1009.7
20260506044532 16 269 3.2 6.4 0.00 0.00 0.00 68 1009.9
20260506043027 16 212 3.2 11.3 0.00 0.00 0.00 68 1009.9
20260506041527 16 200 0.0 6.4 0.00 0.00 0.00 67 1010.0
20260506040020 16 71 0.0 11.3 0.00 0.00 0.00 67 1010.0
20260506034530 17 117 1.6 8.0 0.00 0.00 0.00 65 1010.0
20260506033028 17 105 3.2 6.4 0.00 0.00 0.00 65 1010.0
20260506031526 17 86 1.6 9.7 0.00 0.00 0.00 64 1009.8
20260506030028 17 79 1.6 4.8 0.00 0.00 0.00 63 1010.1
20260506024527 17 117 3.2 9.7 0.00 0.00 0.00 62 1010.1
20260506023020 18 170 1.6 11.3 0.00 0.00 0.00 61 1009.9
20260506021507 18 74 1.6 9.7 0.00 0.00 0.00 61 1009.7
20260506020010 18 121 3.2 6.4 0.00 0.00 0.00 60 1009.5
20260506014522 18 66 1.6 11.3 0.00 0.00 0.00 60 1009.5
20260506013021 19 4 0.0 8.0 0.00 0.00 0.00 59 1009.4
20260506011511 19 110 3.2 14.5 0.00 0.00 0.00 58 1009.4
20260506010029 20 99 4.8 17.7 0.00 0.00 0.00 57 1009.1
20260506004509 20 265 8.0 16.1 0.00 0.00 0.00 55 1009.3
20260506003015 20 210 3.2 17.7 0.00 0.00 0.00 55 1009.0
20260506001519 21 250 4.8 24.1 0.00 0.00 0.00 53 1008.5
20260506000023 21 211 6.4 27.4 0.00 0.00 0.00 52 1008.1
20260505234535 21 160 4.8 20.9 0.00 0.00 0.00 51 1007.8
20260505233010 22 160 3.2 22.5 0.00 0.00 0.00 50 1007.5
20260505231523 22 197 3.2 20.9 0.00 0.00 0.00 49 1007.1
20260505230003 22 160 3.2 25.7 0.00 0.00 0.00 48 1007.1
20260505224506 23 86 6.4 22.5 0.00 0.00 0.00 48 1007.0